{"data":{"norad_id":64865,"intl_designator":"2025-152Z","name":"STARLINK-34544","alt_names":[],"object_type":"PAYLOAD","status":"ACTIVE","operator":null,"country":"US","launch_date":"2025-07-19","launch_site_code":"AFWTR","launch_vehicle":null,"mission":null,"orbit_class":"UNKNOWN","rcs_meters":null,"size_class":null,"mass_kg":null,"dimensions":null,"purposes":["comms"],"wikipedia_slug":null,"has_3d_model":false,"image_url":null,"decayed_at":null,"tle_current":{"epoch":"2026-09-20T13:25:25.276512Z","epoch_age_seconds":119167,"freshness":"FRESH","line1":"1 64865U 25152Z   26263.55932033  .00010921  00000+0  34010-3 0  9996","line2":"2 64865  97.2851 114.1262 0001453  83.6745 276.4663 15.33445813 64838","mean_motion":15.33445813,"eccentricity":0.0001453,"inclination_deg":97.2851,"raan_deg":114.1262,"arg_perigee_deg":83.6745,"mean_anomaly_deg":276.4663,"bstar":0.0003401,"rev_number":6483,"period_min":93.906154869784,"perigee_km":464.54636918531,"apogee_km":466.53514194108,"semimajor_km":6843.6777555632,"source":"CELESTRAK","updated_at":"2026-09-21T09:00:35.453310Z"}}}